Time,TemperatureF,DewpointF,PressureIn,WindDirection,WindDirectionDegrees,WindSpeedMPH,WindSpeedGustMPH,Humidity,HourlyPrecipIn,Conditions,Clouds,dailyrainin,SolarRadiationWatts/m^2,SoftwareType,DateUTC
2013-06-16 00:01:00,69.0,65.0,-100.00,SE,143,1.0,3.0,86,0.00,,,0.00,0.000000,,2013-06-16 05:01:00,
2013-06-16 00:12:00,69.0,65.0,-100.00,SE,143,1.0,3.0,86,0.00,,,0.00,0.000000,,2013-06-16 05:12:00,
2013-06-16 00:22:00,69.0,65.0,-100.00,SE,143,1.0,3.0,86,0.00,,,0.00,0.000000,,2013-06-16 05:22:00,
2013-06-16 00:52:00,71.0,65.0,-100.00,SE,140,3.0,5.0,80,0.00,,,0.00,0.000000,,2013-06-16 05:52:00,
2013-06-16 01:01:00,71.0,65.0,-100.00,SE,140,3.0,5.0,80,0.00,,,0.00,0.000000,,2013-06-16 06:01:00,
2013-06-16 01:11:00,71.0,65.0,-100.00,SE,140,3.0,5.0,80,0.00,,,0.00,0.000000,,2013-06-16 06:11:00,
2013-06-16 01:22:00,71.0,65.0,-100.00,SE,140,3.0,5.0,80,0.00,,,0.00,0.000000,,2013-06-16 06:22:00,
2013-06-16 01:52:00,72.0,65.0,-100.00,SSE,147,2.0,6.0,78,0.00,,,0.00,0.000000,,2013-06-16 06:52:00,
2013-06-16 02:01:00,72.0,65.0,-100.00,SSE,147,2.0,6.0,78,0.00,,,0.00,0.000000,,2013-06-16 07:01:00,
2013-06-16 02:11:00,72.0,65.0,-100.00,SSE,147,2.0,6.0,78,0.00,,,0.00,0.000000,,2013-06-16 07:11:00,
2013-06-16 02:22:00,72.0,65.0,-100.00,SSE,147,2.0,6.0,78,0.00,,,0.00,0.000000,,2013-06-16 07:22:00,
2013-06-16 02:53:00,69.0,65.0,-100.00,NNE,21,0.0,4.0,87,0.00,,,0.00,0.000000,,2013-06-16 07:53:00,
2013-06-16 03:02:00,69.0,65.0,-100.00,NNE,21,0.0,4.0,87,0.00,,,0.00,0.000000,,2013-06-16 08:02:00,
2013-06-16 03:12:00,69.0,65.0,-100.00,NNE,21,0.0,4.0,87,0.00,,,0.00,0.000000,,2013-06-16 08:12:00,
2013-06-16 03:22:00,69.0,65.0,-100.00,NNE,21,0.0,4.0,87,0.00,,,0.00,0.000000,,2013-06-16 08:22:00,
2013-06-16 03:54:00,67.0,65.0,-100.00,ENE,66,0.0,0.0,94,0.00,,,0.00,0.000000,,2013-06-16 08:54:00,
2013-06-16 04:02:00,67.0,65.0,-100.00,ENE,66,0.0,0.0,94,0.00,,,0.00,0.000000,,2013-06-16 09:02:00,
2013-06-16 04:11:00,67.0,65.0,-100.00,ENE,66,0.0,0.0,94,0.00,,,0.00,0.000000,,2013-06-16 09:11:00,
2013-06-16 04:22:00,67.0,65.0,-100.00,ENE,66,0.0,0.0,94,0.00,,,0.00,0.000000,,2013-06-16 09:22:00,
2013-06-16 04:52:00,66.0,65.0,-100.00,East,89,1.0,2.0,96,0.00,,,0.00,0.000000,,2013-06-16 09:52:00,
2013-06-16 05:02:00,66.0,65.0,-100.00,East,89,1.0,2.0,96,0.00,,,0.00,0.000000,,2013-06-16 10:02:00,
2013-06-16 05:12:00,66.0,65.0,-100.00,East,89,1.0,2.0,96,0.00,,,0.00,0.000000,,2013-06-16 10:12:00,
2013-06-16 05:22:00,66.0,65.0,-100.00,East,89,1.0,2.0,96,0.00,,,0.00,0.000000,,2013-06-16 10:22:00,
2013-06-16 05:54:00,67.0,66.0,-100.00,East,79,0.0,2.0,95,0.00,,,0.00,0.000000,,2013-06-16 10:54:00,
2013-06-16 06:02:00,67.0,66.0,-100.00,East,79,0.0,2.0,95,0.00,,,0.00,0.000000,,2013-06-16 11:02:00,
2013-06-16 06:11:00,67.0,66.0,-100.00,East,79,0.0,2.0,95,0.00,,,0.00,0.000000,,2013-06-16 11:11:00,
2013-06-16 06:22:00,67.0,66.0,-100.00,East,79,0.0,2.0,95,0.00,,,0.00,0.000000,,2013-06-16 11:22:00,
2013-06-16 06:53:00,68.0,66.0,-100.00,ESE,102,2.0,4.0,94,0.00,,,0.00,24.000000,,2013-06-16 11:53:00,
2013-06-16 07:02:00,68.0,66.0,-100.00,ESE,102,2.0,4.0,94,0.00,,,0.00,24.000000,,2013-06-16 12:02:00,
2013-06-16 07:12:00,68.0,66.0,-100.00,ESE,102,2.0,4.0,94,0.00,,,0.00,24.000000,,2013-06-16 12:12:00,
2013-06-16 07:22:00,68.0,66.0,-100.00,ESE,102,2.0,4.0,94,0.00,,,0.00,24.000000,,2013-06-16 12:22:00,
2013-06-16 07:53:00,71.0,68.0,-100.00,SE,124,1.0,3.0,89,0.00,,,0.00,85.000000,,2013-06-16 12:53:00,
2013-06-16 08:01:00,71.0,68.0,-100.00,SE,124,1.0,3.0,89,0.00,,,0.00,85.000000,,2013-06-16 13:01:00,
2013-06-16 08:11:00,71.0,68.0,-100.00,SE,124,1.0,3.0,89,0.00,,,0.00,85.000000,,2013-06-16 13:11:00,
2013-06-16 08:22:00,71.0,68.0,-100.00,SE,124,1.0,3.0,89,0.00,,,0.00,85.000000,,2013-06-16 13:22:00,
2013-06-16 08:54:00,75.0,68.0,-100.00,SSW,201,2.0,5.0,80,0.00,,,0.00,208.000000,,2013-06-16 13:54:00,
2013-06-16 09:02:00,75.0,68.0,-100.00,SSW,201,2.0,5.0,80,0.00,,,0.00,208.000000,,2013-06-16 14:02:00,
2013-06-16 09:12:00,75.0,68.0,-100.00,SSW,201,2.0,5.0,80,0.00,,,0.00,208.000000,,2013-06-16 14:12:00,
2013-06-16 09:22:00,75.0,68.0,-100.00,SSW,201,2.0,5.0,80,0.00,,,0.00,208.000000,,2013-06-16 14:22:00,
2013-06-16 09:53:00,78.0,69.0,-100.00,SSW,199,3.0,9.0,74,0.00,,,0.00,400.000000,,2013-06-16 14:53:00,
2013-06-16 10:02:00,78.0,69.0,-100.00,SSW,199,3.0,9.0,74,0.00,,,0.00,400.000000,,2013-06-16 15:02:00,
2013-06-16 10:12:00,78.0,69.0,-100.00,SSW,199,3.0,9.0,74,0.00,,,0.00,400.000000,,2013-06-16 15:12:00,
2013-06-16 10:23:00,78.0,69.0,-100.00,SSW,199,3.0,9.0,74,0.00,,,0.00,400.000000,,2013-06-16 15:23:00,
2013-06-16 10:53:00,81.0,71.0,-100.00,South,191,4.0,9.0,71,0.00,,,0.00,474.000000,,2013-06-16 15:53:00,
2013-06-16 11:02:00,81.0,71.0,-100.00,South,191,4.0,9.0,71,0.00,,,0.00,474.000000,,2013-06-16 16:02:00,
2013-06-16 11:12:00,81.0,71.0,-100.00,South,191,4.0,9.0,71,0.00,,,0.00,474.000000,,2013-06-16 16:12:00,
2013-06-16 11:23:00,81.0,71.0,-100.00,South,191,4.0,9.0,71,0.00,,,0.00,474.000000,,2013-06-16 16:23:00,
2013-06-16 11:53:00,85.0,70.0,-100.00,SW,218,5.0,11.0,60,0.00,,,0.00,791.000000,,2013-06-16 16:53:00,
2013-06-16 12:02:00,85.0,70.0,-100.00,SW,218,5.0,11.0,60,0.00,,,0.00,791.000000,,2013-06-16 17:02:00,
2013-06-16 12:12:00,85.0,70.0,-100.00,SW,218,5.0,11.0,60,0.00,,,0.00,791.000000,,2013-06-16 17:12:00,
2013-06-16 12:22:00,85.0,70.0,-100.00,SW,218,5.0,11.0,60,0.00,,,0.00,791.000000,,2013-06-16 17:22:00,
2013-06-16 12:53:00,85.0,70.0,-100.00,SW,215,5.0,9.0,60,0.00,,,0.00,721.000000,,2013-06-16 17:53:00,
2013-06-16 13:02:00,85.0,70.0,-100.00,SW,215,5.0,9.0,60,0.00,,,0.00,721.000000,,2013-06-16 18:02:00,
2013-06-16 13:12:00,85.0,70.0,-100.00,SW,215,5.0,9.0,60,0.00,,,0.00,721.000000,,2013-06-16 18:12:00,
2013-06-16 13:22:00,85.0,70.0,-100.00,SW,215,5.0,9.0,60,0.00,,,0.00,721.000000,,2013-06-16 18:22:00,
2013-06-16 13:52:00,85.0,72.0,-100.00,SW,227,4.0,10.0,65,0.00,,,0.00,598.000000,,2013-06-16 18:52:00,
2013-06-16 14:01:00,85.0,72.0,-100.00,SW,227,4.0,10.0,65,0.00,,,0.00,598.000000,,2013-06-16 19:01:00,
2013-06-16 14:11:00,85.0,72.0,-100.00,SW,227,4.0,10.0,65,0.00,,,0.00,598.000000,,2013-06-16 19:11:00,
2013-06-16 14:22:00,85.0,72.0,-100.00,SW,227,4.0,10.0,65,0.00,,,0.00,598.000000,,2013-06-16 19:22:00,
2013-06-16 14:53:00,85.0,69.0,-100.00,SSW,213,4.0,12.0,59,0.00,,,0.00,813.000000,,2013-06-16 19:53:00,
2013-06-16 15:02:00,85.0,69.0,-100.00,SSW,213,4.0,12.0,59,0.00,,,0.00,813.000000,,2013-06-16 20:02:00,
2013-06-16 15:11:00,85.0,69.0,-100.00,SSW,213,4.0,12.0,59,0.00,,,0.00,813.000000,,2013-06-16 20:11:00,
2013-06-16 15:22:00,85.0,69.0,-100.00,SSW,213,4.0,12.0,59,0.00,,,0.00,813.000000,,2013-06-16 20:22:00,
2013-06-16 15:53:00,86.0,71.0,-100.00,SSW,205,3.0,7.0,61,0.00,,,0.00,384.000000,,2013-06-16 20:53:00,
2013-06-16 16:02:00,86.0,71.0,-100.00,SSW,205,3.0,7.0,61,0.00,,,0.00,384.000000,,2013-06-16 21:02:00,
2013-06-16 16:11:00,86.0,71.0,-100.00,SSW,205,3.0,7.0,61,0.00,,,0.00,384.000000,,2013-06-16 21:11:00,
2013-06-16 16:22:00,86.0,71.0,-100.00,SSW,205,3.0,7.0,61,0.00,,,0.00,384.000000,,2013-06-16 21:22:00,
2013-06-16 16:53:00,87.0,70.0,-100.00,SSW,210,5.0,11.0,58,0.00,,,0.00,704.000000,,2013-06-16 21:53:00,
2013-06-16 17:01:00,87.0,70.0,-100.00,SSW,210,5.0,11.0,58,0.00,,,0.00,704.000000,,2013-06-16 22:01:00,
2013-06-16 17:12:00,87.0,70.0,-100.00,SSW,210,5.0,11.0,58,0.00,,,0.00,704.000000,,2013-06-16 22:12:00,
2013-06-16 17:22:00,87.0,70.0,-100.00,SSW,210,5.0,11.0,58,0.00,,,0.00,704.000000,,2013-06-16 22:22:00,
2013-06-16 17:52:00,86.0,71.0,-100.00,SSW,196,2.0,9.0,62,0.00,,,0.00,485.000000,,2013-06-16 22:52:00,
2013-06-16 18:01:00,86.0,71.0,-100.00,SSW,196,2.0,9.0,62,0.00,,,0.00,485.000000,,2013-06-16 23:01:00,
2013-06-16 18:11:00,86.0,71.0,-100.00,SSW,196,2.0,9.0,62,0.00,,,0.00,485.000000,,2013-06-16 23:11:00,
2013-06-16 18:22:00,86.0,71.0,-100.00,SSW,196,2.0,9.0,62,0.00,,,0.00,485.000000,,2013-06-16 23:22:00,
2013-06-16 18:52:00,81.0,71.0,-100.00,South,171,2.0,9.0,72,0.00,,,0.00,148.000000,,2013-06-16 23:52:00,
2013-06-16 19:02:00,81.0,71.0,-100.00,South,171,2.0,9.0,72,0.00,,,0.00,148.000000,,2013-06-17 00:02:00,
2013-06-16 19:11:00,81.0,71.0,-100.00,South,171,2.0,9.0,72,0.00,,,0.00,148.000000,,2013-06-17 00:11:00,
2013-06-16 19:22:00,81.0,71.0,-100.00,South,171,2.0,9.0,72,0.00,,,0.00,148.000000,,2013-06-17 00:22:00,
2013-06-16 19:52:00,79.0,71.0,-100.00,SSE,168,3.0,6.0,77,0.00,,,0.00,37.000000,,2013-06-17 00:52:00,
2013-06-16 20:02:00,79.0,71.0,-100.00,SSE,168,3.0,6.0,77,0.00,,,0.00,37.000000,,2013-06-17 01:02:00,
2013-06-16 20:12:00,79.0,71.0,-100.00,SSE,168,3.0,6.0,77,0.00,,,0.00,37.000000,,2013-06-17 01:12:00,
2013-06-16 20:22:00,79.0,71.0,-100.00,SSE,168,3.0,6.0,77,0.00,,,0.00,37.000000,,2013-06-17 01:22:00,
2013-06-16 20:53:00,78.0,71.0,-100.00,South,171,2.0,5.0,79,0.00,,,0.00,7.000000,,2013-06-17 01:53:00,
2013-06-16 21:02:00,78.0,71.0,-100.00,South,171,2.0,5.0,79,0.00,,,0.00,7.000000,,2013-06-17 02:02:00,
2013-06-16 21:12:00,78.0,71.0,-100.00,South,171,2.0,5.0,79,0.00,,,0.00,7.000000,,2013-06-17 02:12:00,
2013-06-16 21:22:00,78.0,71.0,-100.00,South,171,2.0,5.0,79,0.00,,,0.00,7.000000,,2013-06-17 02:22:00,
2013-06-16 21:53:00,76.0,72.0,-100.00,South,172,0.0,4.0,86,0.00,,,0.00,0.000000,,2013-06-17 02:53:00,
2013-06-16 22:02:00,76.0,72.0,-100.00,South,172,0.0,4.0,86,0.00,,,0.00,0.000000,,2013-06-17 03:02:00,
2013-06-16 22:12:00,76.0,72.0,-100.00,South,172,0.0,4.0,86,0.00,,,0.00,0.000000,,2013-06-17 03:12:00,
2013-06-16 22:22:00,76.0,72.0,-100.00,South,172,0.0,4.0,86,0.00,,,0.00,0.000000,,2013-06-17 03:22:00,
2013-06-16 22:54:00,75.0,71.0,-100.00,South,189,0.0,3.0,87,0.00,,,0.00,0.000000,,2013-06-17 03:54:00,
2013-06-16 23:02:00,75.0,71.0,-100.00,South,189,0.0,3.0,87,0.00,,,0.00,0.000000,,2013-06-17 04:02:00,
2013-06-16 23:12:00,75.0,71.0,-100.00,South,189,0.0,3.0,87,0.00,,,0.00,0.000000,,2013-06-17 04:12:00,
2013-06-16 23:22:00,75.0,71.0,-100.00,South,189,0.0,3.0,87,0.00,,,0.00,0.000000,,2013-06-17 04:22:00,
2013-06-16 23:53:00,73.0,71.0,-100.00,SE,140,1.0,3.0,93,0.00,,,0.00,0.000000,,2013-06-17 04:53:00,